Cardak, Turkey

5:32 AM +03 on June 19, 2018 (GMT +0300)
Cardak Air Base

Weather History for LTAY - June, 2018

Change the Weather History Date:

Thursday, June 14, 2018

  Actual Average Record
Temperature  
Mean Temperature 72 °F -  
Max Temperature 84 °F - - ()
Min Temperature 59 °F - - ()
Cooling Degree Days 6    
Growing Degree Days 22 (Base 50)    
Moisture  
Dew Point 56 °F    
Average Humidity 63    
Maximum Humidity 88    
Minimum Humidity 35    
Precipitation  
Precipitation 0.00 in - - ()
Sea Level Pressure  
Sea Level Pressure 29.80 in    
Wind  
Wind Speed 5 mph ()    
Max Wind Speed 22 mph    
Max Gust Speed -    
Visibility 6.1 miles    
Events Rain , Thunderstorm    
T = Trace of Precipitation, MM = Missing Value Source: Averaged Metar Reports

Daily Weather History Graph

Daily Weather History Graph

Search for Another Location

Airport or City:

Astronomy

Jun. 14, 2018 Rise Set
Actual Time 5:38 AM +03 8:24 PM +03
Civil Twilight 5:07 AM +03 8:55 PM +03
Nautical Twilight 4:28 AM +03 9:34 PM +03
Astronomical Twilight 3:44 AM +03 10:19 PM +03
Moon 6:15 AM +03 (6/14) 9:04 PM +03 (6/14)
Length of Visible Light 15h 48m
Length of Day
14h 45m
New Moon, 0% of the Moon is Illuminated
Jun 14
New Moon
Jun 20
First Quarter
Jun 28
Full
Jul 6
Last Quarter
Jul 13
New

Hourly Weather History & Observations

Time (+03) Temp. Heat Index Dew Point Humidity Pressure Visibility Wind Dir Wind Speed Gust Speed Precip Events Conditions
12:50 AM 68.0 °F - 57.2 °F 68% 29.74 in - WSW 6.9 mph - N/A   Clear
2:50 AM 64.4 °F - 57.2 °F 77% 29.74 in - SW 4.6 mph - N/A   Clear
4:50 AM 62.6 °F - 55.4 °F 77% 29.74 in - SW 4.6 mph - N/A   Clear
5:50 AM 59.0 °F - 55.4 °F 88% 29.74 in - SSW 4.6 mph - N/A   Clear
6:50 AM 64.4 °F - 55.4 °F 73% 29.74 in - Calm Calm - N/A   Clear
8:50 AM 75.2 °F - 55.4 °F 50% 29.77 in - Calm Calm - N/A   Clear
9:50 AM 78.8 °F - 53.6 °F 42% 29.77 in 6.2 mi Variable 1.2 mph - N/A   Partly Cloudy
10:50 AM 82.4 °F 81.4 °F 53.6 °F 37% 29.77 in 6.2 mi Variable 1.2 mph - N/A   Partly Cloudy
11:50 AM 82.4 °F 81.4 °F 53.6 °F 37% 29.77 in 6.2 mi ENE 5.8 mph - N/A   Scattered Clouds
12:50 PM 84.2 °F 82.8 °F 53.6 °F 35% 29.77 in 6.2 mi Variable 4.6 mph - N/A   Scattered Clouds
1:18 PM 82.4 °F 81.7 °F 55.4 °F 39% 29.77 in 6.2 mi West 8.1 mph - N/A Rain , Thunderstorm Light Thunderstorms and Rain
1:50 PM 77.0 °F - 55.4 °F 47% 29.77 in 6.2 mi South 10.4 mph - N/A Thunderstorm Thunderstorm
3:50 PM 80.6 °F 80.8 °F 57.2 °F 45% 29.77 in 6.2 mi WNW 5.8 mph - N/A Rain , Thunderstorm Light Thunderstorms and Rain
4:21 PM 69.8 °F - 57.2 °F 64% 29.77 in 6.2 mi SSW 11.5 mph - N/A Rain , Thunderstorm Light Thunderstorms and Rain
4:50 PM 69.8 °F - 59.0 °F 68% 29.80 in 6.2 mi South 11.5 mph - N/A Thunderstorm Thunderstorm
5:50 PM 68.0 °F - 62.6 °F 83% 29.83 in 5.0 mi ESE 8.1 mph - N/A Rain , Thunderstorm Light Thunderstorms and Rain
6:50 PM 66.2 °F - 57.2 °F 73% 29.86 in 6.2 mi West 13.8 mph - N/A Thunderstorm Thunderstorm
7:50 PM 64.4 °F - 55.4 °F 73% 29.83 in 5.0 mi SSE 21.9 mph - N/A Rain , Thunderstorm Light Thunderstorms and Rain
8:47 PM 66.2 °F - 55.4 °F 68% 29.86 in 6.2 mi NNW 4.6 mph - N/A   Mostly Cloudy
8:50 PM 66.2 °F - 55.4 °F 68% 29.86 in 6.2 mi NNW 4.6 mph - N/A   Mostly Cloudy
9:50 PM 62.6 °F - 55.4 °F 77% 29.89 in 6.2 mi ESE 5.8 mph - N/A   Mostly Cloudy
10:50 PM 59.0 °F - 55.4 °F 88% 29.89 in 6.2 mi SE 3.5 mph - N/A   Scattered Clouds
11:50 PM 60.8 °F - 53.6 °F 77% 29.89 in 6.2 mi East 5.8 mph - N/A   Partly Cloudy